Stations météo

Publicité
Rodez, France (7552): Température de l'air & dewpoint: 11.08.2019 17:00:00 - 17.08.2019 17:00:00 (CEST)Rodez, France (7552): Température de l'air 5cm: 11.08.2019 17:00:00 - 17.08.2019 17:00:00 (CEST)Rodez, France (7552): Vitesse du vent & gusts: 11.08.2019 17:00:00 - 17.08.2019 17:00:00 (CEST)Rodez, France (7552): Direction du vent: 11.08.2019 17:00:00 - 17.08.2019 17:00:00 (CEST)Rodez, France (7552): reduced air pressure: 11.08.2019 17:00:00 - 17.08.2019 17:00:00 (CEST)Rodez, France (7552): visibility: 11.08.2019 17:00:00 - 17.08.2019 17:00:00 (CEST)Rodez, France (7552): Ensoleillement: 11.08.2019 17:00:00 - 17.08.2019 17:00:00 (CEST)Rodez, France (7552): Quantités de précipitations: 11.08.2019 17:00:00 - 17.08.2019 17:00:00 (CEST)
Date & Time tt [°C] td [°C] tt 5cm [°C] ff [km/h] ff [knt] fx [km/h] fx [knt] dd ppp [hPa] vv [km] sd [min] rr [mm]
17.08.2019 17:00:00 29,8 14,4 35,4 10 6 20 11 WSW 1011,9 44 60 0,0
17.08.2019 16:00:00 29,0 14,0 34,9 6 4 18 10 SW 1012,4 20 60 0,0
17.08.2019 15:00:00 28,3 13,4 35,4 5 3 22 12 WNW 1013,1 49 60 0,0
17.08.2019 14:00:00 26,8 14,2 33,0 5 3 16 9 S 1014,0 19 60 0,0
17.08.2019 13:00:00 26,5 12,2 32,3 4 2 14 8 ESE 1014,7 43 60 0,0
17.08.2019 12:00:00 25,2 13,4 29,8 6 3 18 10 E 1015,1 42 57 0,0
17.08.2019 11:00:00 23,5 13,4 24,3 3 2 10 6 E 1015,6 55 49 0,0
17.08.2019 10:00:00 20,8 13,0 22,2 5 3 11 6 SSE 1015,9 51 54 0,0
17.08.2019 09:00:00 17,4 12,7 15,6 7 4 10 5 SE 1016,8 53 40 0,0
17.08.2019 08:00:00 14,6 11,7 9,5 5 3 17 9 SSE 1017,0 60 42 0,0
17.08.2019 07:00:00 12,4 9,9 9,1 9 5 15 8 SSE 1017,5 60 0 0,0
17.08.2019 06:00:00 13,4 10,4 8,9 3 2 13 7 SE 1017,7 60 0 0,0
17.08.2019 05:00:00 13,1 10,3 8,2 7 4 9 5 SE 1018,0 60 0 0,0
17.08.2019 04:00:00 13,4 10,7 8,9 5 3 11 6 SSE 1017,7 60 0 0,0
17.08.2019 03:00:00 13,9 10,9 9,8 6 4 11 6 SSE 1017,6 60 0 0,0
17.08.2019 02:00:00 14,3 11,3 10,2 5 3 9 5 SE 1017,7 60 0 0,0
17.08.2019 01:00:00 15,0 11,6 10,9 4 2 6 4 SSE 1017,7 60 0 0,0
17.08.2019 00:00:00 15,3 11,3 11,0 6 4 12 7 SSE 1017,4 60 0 0,0
16.08.2019 23:00:00 17,1 11,1 11,7 3 2 8 4 SSE 1017,0 60 0 0,0
16.08.2019 22:00:00 18,1 11,6 13,4 3 2 11 6 S 1016,4 60 0 0,0
16.08.2019 21:00:00 21,6 10,1 17,3 9 5 13 7 NW 1015,5 60 25 0,0
16.08.2019 20:00:00 24,0 10,3 23,0 9 5 15 8 NNW 1014,8 45 51 0,0
16.08.2019 19:00:00 25,7 9,9 27,7 4 2 13 7 SW 1014,2 35 45 0,0
16.08.2019 18:00:00 26,7 10,8 29,7 4 2 14 7 SW 1014,3 18 57 0,0
16.08.2019 17:00:00 25,6 9,4 29,2 6 4 20 11 NW 1015,2 60 58 0,0
16.08.2019 16:00:00 24,7 11,3 32,0 10 6 23 12 NNW 1015,7 59 60 0,0
16.08.2019 15:00:00 24,0 10,6 28,9 8 4 18 10 WNW 1016,3 60 60 0,0
16.08.2019 14:00:00 22,9 11,6 28,3 6 3 16 9 W 1016,9 45 60 0,0
16.08.2019 13:00:00 21,1 12,5 24,5 6 3 17 9 SW 1017,8 53 48 0,0
16.08.2019 12:00:00 20,3 11,2 26,4 4 2 16 8 ENE 1018,3 57 60 0,0
16.08.2019 11:00:00 18,4 11,7 23,3 6 3 12 7 N 1019,1 57 60 0,0
16.08.2019 10:00:00 16,3 11,9 21,1 6 3 10 5 E 1019,8 50 60 0,0
16.08.2019 09:00:00 13,9 12,5 12,0 0 0 7 4 N 1020,8 25 60 0,0
16.08.2019 08:00:00 10,3 10,1 4,7 4 2 7 4 SE 1021,2 19 44 0,0
16.08.2019 07:00:00 8,2 7,9 4,0 3 2 5 3 S 1021,7 20 0 0,0
16.08.2019 06:00:00 9,1 8,8 4,6 2 1 5 3 S 1021,6 23 0 0,0
16.08.2019 05:00:00 9,8 9,5 4,5 4 2 7 4 S 1021,6 30 0 0,0
16.08.2019 04:00:00 10,5 9,9 5,4 4 2 8 4 S 1022,2 40 0 0,0
16.08.2019 03:00:00 11,8 10,5 7,3 3 2 9 5 WSW 1022,2 55 0 0,0
16.08.2019 02:00:00 11,5 10,2 8,9 5 3 10 6 WSW 1022,6 52 0 0,0
16.08.2019 01:00:00 13,7 11,4 9,7 4 2 11 6 W 1022,3 59 0 0,0
16.08.2019 00:00:00 14,0 11,7 10,4 6 3 13 7 WNW 1022,8 60 0 0,0
15.08.2019 23:00:00 14,4 11,7 11,9 10 6 19 10 WNW 1022,4 60 0 0,0
15.08.2019 22:00:00 15,4 11,8 14,2 14 8 19 11 WNW 1022,1 60 0 0,0
15.08.2019 21:00:00 16,2 11,6 14,9 12 6 24 13 WNW 1021,3 60 11 0,0
15.08.2019 20:00:00 18,4 11,9 17,9 16 9 34 19 WNW 1020,6 54 30 0,0
15.08.2019 19:00:00 19,6 12,1 19,6 22 12 38 20 WNW 1020,2 53 34 0,0
15.08.2019 18:00:00 20,6 12,0 20,3 24 13 53 29 WNW 1019,7 60 45 0,0
15.08.2019 17:00:00 21,3 13,0 21,8 25 13 39 21 WNW 1019,4 60 50 0,0
15.08.2019 16:00:00 20,1 13,3 20,5 20 11 35 19 WNW 1020,0 20 10 0,0
15.08.2019 15:00:00 18,3 13,6 19,6 15 8 28 15 WNW 1020,6 48 12 0,0
15.08.2019 14:00:00 17,2 13,7 16,5 14 8 33 18 WNW 1021,0 51 0 0,0
15.08.2019 13:00:00 16,2 14,0 15,0 20 11 52 28 W 1020,9 20 0 0,2
15.08.2019 12:00:00 17,0 14,8 17,4 25 13 37 20 WNW 1020,6 47 6 0,0
15.08.2019 11:00:00 16,5 15,7 16,6 14 8 29 16 NW 1020,3 36 3 0,0
15.08.2019 10:00:00 16,2 15,2 15,3 20 11 39 21 W 1020,1 40 4 0,0
15.08.2019 09:00:00 15,1 14,9 14,4 13 7 22 12 WSW 1020,0 3,2 0 1,2
15.08.2019 08:00:00 14,2 14,0 13,8 5 3 11 6 S 1019,8 1,8 0 0,4
15.08.2019 07:00:00 13,9 13,6 13,6 7 4 12 6 SW 1019,8 6 0 0,2
15.08.2019 06:00:00 14,2 12,9 13,5 9 5 23 13 W 1019,6 3,9 0 0,4
15.08.2019 05:00:00 16,6 11,5 16,1 6 3 19 10 SW 1018,7 60 0 0,0
15.08.2019 04:00:00 17,2 11,7 16,1 12 7 19 11 W 1018,9 60 0 0,0
15.08.2019 03:00:00 17,0 11,3 14,4 8 5 15 8 SW 1018,9 60 0 0,0
15.08.2019 02:00:00 16,3 11,2 14,4 9 5 10 6 SW 1019,4 60 0 0,0
15.08.2019 01:00:00 17,0 10,8 14,6 3 1 9 5 S 1019,4 60 0 0,0
15.08.2019 00:00:00 16,5 10,8 14,9 6 3 13 7 S 1019,7 55 0 0,0
14.08.2019 23:00:00 17,1 10,0 14,9 11 6 17 9 WSW 1019,6 60 0 0,0
14.08.2019 22:00:00 17,5 9,6 13,5 11 6 18 10 WSW 1019,2 60 0 0,0
14.08.2019 21:00:00 18,8 7,2 15,7 12 6 18 10 WNW 1018,2 60 27 0,0
14.08.2019 20:00:00 21,7 8,2 21,1 16 9 27 15 NW 1017,2 60 60 0,0
14.08.2019 19:00:00 22,7 8,4 25,0 21 11 31 17 W 1017,0 60 60 0,0
14.08.2019 18:00:00 23,2 8,8 27,1 17 9 38 20 W 1017,0 58 60 0,0
14.08.2019 17:00:00 22,8 8,5 27,1 16 9 31 17 WNW 1017,4 60 60 0,0
14.08.2019 16:00:00 22,3 8,4 27,2 16 9 31 17 W 1017,8 55 60 0,0
14.08.2019 15:00:00 21,4 8,3 27,4 12 7 28 15 NNW 1018,2 60 60 0,0
14.08.2019 14:00:00 21,2 8,1 27,1 15 8 36 20 W 1018,6 41 60 0,0
14.08.2019 13:00:00 20,0 8,3 24,9 10 6 27 14 N 1019,3 51 60 0,0
14.08.2019 12:00:00 18,9 7,6 24,8 16 9 26 14 WNW 1019,8 56 60 0,0
14.08.2019 11:00:00 18,2 8,2 25,2 9 5 20 11 N 1019,9 46 60 0,0
14.08.2019 10:00:00 16,0 8,0 19,9 5 3 10 5 N 1020,4 43 60 0,0
14.08.2019 09:00:00 13,6 8,8 13,5 4 2 8 4 W 1021,1 43 60 0,0
14.08.2019 08:00:00 10,2 8,8 5,2 3 2 6 4 SSE 1021,4 26 40 0,0
14.08.2019 07:00:00 9,4 7,2 4,8 3 2 7 4 ESE 1021,4 48 0 0,0
14.08.2019 06:00:00 10,5 7,7 6,9 3 2 9 5 W 1021,0 59 0 0,0
14.08.2019 05:00:00 10,3 7,4 7,8 6 3 14 8 WSW 1021,4 60 0 0,0
14.08.2019 04:00:00 11,0 7,5 7,4 3 1 11 6 W 1021,4 60 0 0,0
14.08.2019 03:00:00 11,9 7,8 7,5 9 5 15 8 WNW 1021,5 60 0 0,0
14.08.2019 02:00:00 10,5 7,2 7,6 11 6 17 9 W 1022,1 60 0 0,0
14.08.2019 01:00:00 11,0 7,1 8,6 14 7 16 9 WNW 1022,5 60 0 0,0
14.08.2019 00:00:00 12,7 7,4 10,9 13 7 19 10 WNW 1022,3 60 0 0,0
13.08.2019 23:00:00 12,8 7,5 11,3 14 7 19 10 WNW 1022,1 60 0 0,0
13.08.2019 22:00:00 13,8 7,1 12,3 15 8 21 11 WNW 1021,5 60 0 0,0
13.08.2019 21:00:00 15,5 6,8 14,5 17 9 33 18 WNW 1020,7 60 36 0,0
13.08.2019 20:00:00 17,8 6,9 17,5 21 11 41 22 WNW 1019,8 36 60 0,0
13.08.2019 19:00:00 18,9 7,9 21,1 25 13 38 21 W 1019,3 33 60 0,0
13.08.2019 18:00:00 19,5 7,9 22,7 26 14 42 23 WNW 1019,3 35 60 0,0
13.08.2019 17:00:00 19,5 7,6 23,5 23 13 55 30 WNW 1019,3 38 60 0,0
13.08.2019 16:00:00 19,8 8,2 24,2 23 12 41 22 WNW 1019,2 44 60 0,0
13.08.2019 15:00:00 18,8 7,9 20,3 19 10 44 24 WNW 1019,9 49 47 0,0
13.08.2019 14:00:00 17,9 8,7 21,0 19 11 35 19 WNW 1020,5 20 46 0,0
13.08.2019 13:00:00 17,4 8,5 21,3 20 11 43 23 WNW 1021,1 50 55 0,0
13.08.2019 12:00:00 16,6 9,3 20,0 18 10 31 17 NW 1021,4 58 55 0,0
13.08.2019 11:00:00 15,1 11,7 17,4 10 5 22 12 NNW 1022,1 38 35 0,0
13.08.2019 10:00:00 14,6 10,4 16,6 15 8 21 11 WNW 1022,3 51 60 0,0
13.08.2019 09:00:00 13,0 11,2 10,9 11 6 17 9 WNW 1022,6 59 46 0,0
13.08.2019 08:00:00 10,6 10,1 9,3 5 3 10 5 SW 1023,2 20 0 0,0
13.08.2019 07:00:00 10,4 9,9 9,3 7 4 10 5 SSW 1022,6 29 0 0,0
13.08.2019 06:00:00 11,2 10,7 10,7 7 4 19 10 WNW 1022,2 34 0 0,0
13.08.2019 05:00:00 11,6 11,0 11,1 14 7 23 12 NW 1022,3 46 0 0,0
13.08.2019 04:00:00 12,2 11,4 11,6 14 7 26 14 NW 1022,4 58 0 0,0
13.08.2019 03:00:00 12,5 11,7 11,9 17 9 25 13 WNW 1022,7 53 0 0,0
13.08.2019 02:00:00 12,9 12,3 10,5 16 9 23 12 W 1022,8 53 0 0,0
13.08.2019 01:00:00 13,5 12,9 11,4 5 3 8 4 W 1022,8 45 0 0,0
13.08.2019 00:00:00 14,1 13,0 13,5 6 3 18 10 W 1022,8 36 0 1,6
12.08.2019 23:00:00 14,6 12,8 12,7 7 4 11 6 WSW 1022,6 12 0 0,0
12.08.2019 22:00:00 14,7 12,7 13,5 6 3 25 13 W 1022,2 60 0 0,0
12.08.2019 21:00:00 15,3 11,9 14,4 11 6 26 14 W 1021,5 60 19 0,0
12.08.2019 20:00:00 15,8 11,8 14,9 19 10 36 19 W 1020,6 60 35 0,0
12.08.2019 19:00:00 16,6 12,7 15,2 26 14 40 21 W 1020,0 54 37 0,0
12.08.2019 18:00:00 18,3 11,8 15,1 22 12 56 31 WNW 1019,4 54 8 0,2
12.08.2019 17:00:00 19,8 9,9 20,7 25 14 36 19 W 1018,5 51 43 0,0
12.08.2019 16:00:00 21,2 9,7 26,3 19 10 34 19 WNW 1018,2 42 57 0,0
12.08.2019 15:00:00 20,8 10,0 22,3 19 10 37 20 WNW 1018,3 48 48 0,0
12.08.2019 14:00:00 20,4 9,0 20,4 23 12 37 20 W 1018,7 50 39 0,0
12.08.2019 13:00:00 18,7 11,0 20,1 16 9 33 18 WNW 1018,9 55 36 0,0
12.08.2019 12:00:00 17,7 11,5 19,9 21 11 39 21 NW 1019,1 60 38 0,0
12.08.2019 11:00:00 18,0 11,3 18,3 18 10 29 16 NW 1018,7 28 45 0,0
12.08.2019 10:00:00 15,6 11,6 15,0 18 10 24 13 WNW 1018,7 46 35 0,0
12.08.2019 09:00:00 14,1 11,8 13,8 9 5 16 9 NW 1018,8 60 0 0,0
12.08.2019 08:00:00 13,6 12,0 12,7 9 5 17 9 WNW 1018,5 60 5 0,0
12.08.2019 07:00:00 13,0 12,2 12,5 12 6 21 12 NW 1018,6 60 0 0,0
12.08.2019 06:00:00 13,3 12,0 12,7 5 3 12 6 SW 1018,4 60 0 0,0
12.08.2019 05:00:00 13,7 12,3 12,6 11 6 21 11 SW 1019,4 60 0 0,6
12.08.2019 04:00:00 14,3 11,3 13,7 4 2 17 9 NW 1018,0 60 0 0,0
12.08.2019 03:00:00 14,7 11,7 13,8 9 5 15 8 WNW 1018,6 60 0 0,0
12.08.2019 02:00:00 14,4 11,5 13,0 11 6 15 8 WNW 1019,0 60 0 0,0
12.08.2019 01:00:00 14,9 11,3 13,6 8 5 24 13 WNW 1019,2 60 0 0,0
12.08.2019 00:00:00 15,6 12,2 15,0 15 8 22 12 WNW 1018,8 60 0 0,0
11.08.2019 23:00:00 16,4 13,3 15,5 11 6 21 12 NW 1018,3 60 0 0,0
11.08.2019 22:00:00 17,2 13,3 15,6 10 6 15 8 WNW 1018,1 60 0 0,0
11.08.2019 21:00:00 17,8 13,9 17,1 9 5 22 12 NW 1017,2 60 21 0,0
11.08.2019 20:00:00 18,6 13,9 19,0 16 9 24 13 NW 1016,8 60 24 0,0
11.08.2019 19:00:00 19,7 14,3 20,8 13 7 23 12 WNW 1016,0 59 18 0,0
11.08.2019 18:00:00 20,4 14,1 22,7 16 9 24 13 WNW 1015,8 60 49 0,0
11.08.2019 17:00:00 20,5 14,6 23,6 10 5 22 12 WNW 1015,4 53 34 0,0

tt = Température de l'air
td = dewpoint
tt 5cm = Température de l'air 5cm
ff = Vitesse du vent
fx = gusts
dd = Direction du vent
ppp = reduced air pressure
vv = visibility
sd = Ensoleillement
rr = Quantités de précipitations

stations d'obs. à proximité